Location: Friaudour
(46.0460°N, 1.2873°E)
Time: 04:36:58
(UTC+00:00)

Cosmos 1674 Rocket - Pass Details

Date: 14 July 2020
Orbit: 602 x 631 km, 82.5° (Epoch: 06 August)

Event Time Altitude Azimuth Distance (km) Brightness Sun altitude
Rises 02:41:24 0° 349° (N) 2,886 7.6 -13.2°
Reaches altitude 10° 02:43:38 10° 347° (NNW) 1,972 6.7 -12.9°
Maximum altitude 02:47:58 73° 264° (W) 637 3.5 -12.5°
Drops below altitude 10° 02:52:15 10° 179° (S) 1,943 5.7 -12.0°
Enters shadow 02:52:18 10° 179° (S) 1,960 5.7 -12.0°
